Regional Weather Roundup
Issued by NWS Newport/Morehead, NC

Home | Current Version | Previous Version | Text Only | Print | Product List | Glossary On
Versions: 1 2 3 4 5 6 7 8 9 10 11 12 13 14 15 16 17 18 19 20 21 22 23 24 25 26 27 28 29 30 31 32 33 34 35 36 37 38 39 40 41 42 43 44 45 46 47 48 49 50
000
ASUS42 KMHX 260922
RWRMHX
WEATHER ROUNDUP FOR EASTERN NORTH CAROLINA
NATIONAL WEATHER SERVICE NEWPORT/MOREHEAD CITY NC
400 AM EST MON JAN 26 2015

NOTE: "FAIR" INDICATES FEW OR NO CLOUDS BELOW 12,000 FEET
WITH NO SIGNIFICANT WEATHER AND/OR OBSTRUCTIONS TO VISIBILITY

NCZ015>017-031-032-045>047-102-103-261000-
NORTH COAST

CITY           SKY/WX    TMP DP  RH WIND       PRES   REMARKS
EDENTON        PTCLDY    38  37  95 CALM      29.75F
ELIZABETH CITY MOCLDY    39  37  92 E5        29.77F
KITTY HAWK     MOSUNNY   44  42  93 E5        29.76F
MANTEO         MOCLDY    43  39  87 E7        29.77F

$$

NCZ045>047-081-094-103-104-261000-
CENTRAL COAST

CITY           SKY/WX    TMP DP  RH WIND       PRES   REMARKS
FRISCO         PTCLDY    47  42  83 NE8       29.75F
SWANQUARTER    NOT AVBL

$$

NCZ095-097-098-100-101-261000-
SOUTHERN COAST

CITY           SKY/WX    TMP DP  RH WIND       PRES   REMARKS
BEAUFORT       MOCLDY    41  40  96 CALM      29.75F
CEDAR ISLAND   NOT AVBL
JACKSONVILLE   MOCLDY    41  38  89 CALM      29.74F
PINEY ISLAND     N/A    N/A N/A N/A MISG      29.75F
WILMINGTON     MOCLDY    41  39  93 CALM      29.74F


$$

NCZ011>013-027>030-043-044-078>080-089-090>093-098-261000-
COASTAL PLAIN

CITY           SKY/WX    TMP DP  RH WIND       PRES   REMARKS
AHOSKIE          N/A     36  34  93 CALM      29.75F
CLINTON        PTCLDY    40  39  97 CALM      29.73F
ELIZABETHTOWN  PTCLDY    40  40  97 S3        29.71F
GOLDSBORO      MOCLDY    39  39  99 SE2       29.71F
GREENVILLE     PTCLDY    37  36  93 CALM      29.77F
HAVELOCK       MOCLDY    39  36  89 CALM      29.76F
KENANSVILLE    PTCLDY    34  34 100 CALM      29.74F
KINSTON        PTCLDY    39  38  94 CALM      29.74F
NEW BERN       MOCLDY    38  34  85 CALM      29.76F
RICHLANDS      PTCLDY    36  30  80 CALM      29.74F
ROCKY MOUNT    MOCLDY    39  35  86 CALM      29.73F
WASHINGTON     PTCLDY    36  35  95 CALM      29.75F
WHITEVILLE     PTCLDY    40  38  93 CALM      29.71F

$$

AMZ130-135-150-152-154-156-158-170-250-252-270-ANZ085-086-088-633-658-670-261000-
MARINE OBSERVATIONS

STATION/POSITION TIME  TEMP    WIND        PRES    WAVE   SWELL
                       AIR SEA DIR/SP/G            HT/PER HT/PER
                 (UTC) (F)     (DEG/KT/KT) (MB)    (FT/S) (FT/S)
CHESAPEAKE LIGHT 0900   45     100/ 13/ 13 1009.1
64 E VA BEACH    0900   51 52   80/  2/  4 1008.8    3/ 8   3/ 8
DUCK             0900   45 44   90/  9/ 10 1007.1
2 E DUCK         0900      43                N/A     2/10   2/11
10 NE DUCK       0900      44                N/A     2/10
OREGON INLET     0900   45 46   60/  6/  8 1007.6
13E OREGON INLT  0900      45                N/A     3/ 8   2/11
HATTERAS CG      0900   49 53   70/  6/  8 1007.4
DIAMOND BUOY     0900   64 70  230/ 12/ 14 1006.9    4/ 8   3/ 8
17 S OCRACOKE    NOT AVBL
CAPE LOOKOUT     0900   52     280/  8/  9 1007.3
BEAUFORT LAB     0900   47 51  360/  2/  3 1006.2
27 SE WRIGHTSVLE NOT AVBL
5 SE WRIGHTSVLE  0900   54 51  210/  8/ 10 1006.7
225 S CAPE HAT   0807   69 72  240/ 12/ 16 1010.4    5/ 7   3/ 7
41 SE CHARLESTON 0900   62 69  240/ 21/ 27 1006.8    7/ 6

$$



USA.gov is the U.S. government's official web portal to all federal, state and local government web resources and services.